Portada
METAR-TAF:

METAR-TAF

Aeropuertos :

Aeropuerto Germán Olano

Puerto Carreño, Colombia

latitud: 06-10N, longitud: 067-30W, altitud: 55 m

Observación

El informe se hizo hace 34 minutos, a las 16:00 UTC
Viento calma
Temperatura 30°C
Humedad 70%
Presión 1010 hPa
Visibilidad 10 km o más
Escasas nubes a una altura de 1700 ft
Cielo nuboso a una altura de 7000 ft

METAR: SKPC 221600Z 00000KT 9999 FEW017 BKN070 30/24 A2982

Hora: 11:34 (16:34 UTC)


TAF: falta

Observaciones y pronósticos meteorológicos de más de 4000 aeropuertos (mensajes METAR y TAF).

Los puntos amarillos y rojos representan las estaciones disponibles.

Ponga el ratón en el punto deseado para ver el nombre de la estación.

Haga clic para ver las observaciones y los pronósticos meteorológicos.

Para cambiar el mapa : haga clic en los botones verdes con una cruz de color negro para hacer un zoom, en el botón verde con un guión para alejar o en las flechas verdes para mapas adyacentes.


METAR-TAF: